軌道要素
The following orbital elements are taken from MPC 70812:
Epoch 2010 Mar. 25.0 TT = JDT 2455280.5
T 2010 Mar. 20.2544 TT MPC
q 1.414423 (2000.0) P Q
z +0.005919 Peri. 77.7019 -0.3248610 -0.7379324
Node 49.3223 +0.2107010 -0.6662160
e 0.991627 Incl. 51.2605 +0.9219926 -0.1077591
From 577 observations 2009 Oct. 20-2010 June 18.
|